Wind_Speed
72 71 66 57 53 55 57 60 65 65 63 64 65 63 62 58 54 50 49 52 53 47 42 35 37 38 36 35 36 35 35 38 36 41 42 41 42 41
74 72 68 61 62 63 67 65 65 65 64 65 69 68 67 63 58 53 49 45 48 48 45 40 45 41 42 38 41 36 42 40 39 39 39 39 39 41
79 78 70 67 68 69 65 54 51 48 50 42 41 44 45 55 55 56 52 54 49 51 44 40 39 36 41 40 41 36 34 36 35 35 37 37 37 37
73 72 70 72 70 42 42 40 40 37 34 35 35 34 34 41 42 48 60 40 47 45 39 40 36 41 39 41 42 36 36 37 39 36 35 34 35 36
74 72 73 69 48 37 38 33 36 31 31 32 33 31 34 36 37 46 62 57 43 37 43 36 38 45 43 41 39 38 36 38 38 40 39 40 38 38
73 72 67 43 30 30 30 31 28 29 32 34 33 36 40 38 39 38 52 40 44 52 39 41 43 43 45 41 40 42 42 40 39 38 39 40 40 39
73 66 48 24 24 25 27 25 27 29 29 35 40 39 34 33 38 36 41 51 46 52 42 41 38 40 45 43 43 42 41 40 39 39 41 41 43 40
64 50 27 27 25 23 23 25 28 29 31 36 33 27 27 29 39 36 37 35 39 36 46 37 35 36 42 38 35 38 38 39 41 43 43 42 41 40
48 23 16 22 21 21 23 25 27 26 30 29 26 21 22 26 33 33 38 41 35 35 41 39 41 42 42 40 40 39 41 43 43 43 40 38 39 38
22 16 17 17 18 20 22 23 26 24 26 23 20 19 21 23 29 30 33 41 37 40 36 40 38 44 39 37 37 40 42 42 42 43 43 40 37 38
10 17 16 17 18 19 21 21 24 22 21 15 13 17 22 22 25 29 28 38 38 40 39 41 41 40 37 38 39 40 39 40 41 42 38 35 34 35
18 18 19 19 19 19 17 19 21 21 14 9 10 13 19 22 19 24 27 28 29 32 33 34 35 37 37 35 35 38 38 38 40 37 36 35 37 35
18 19 19 20 20 20 20 21 20 17 11 8 10 12 16 21 24 26 26 26 28 30 31 32 31 30 32 34 35 32 32 33 34 33 35 38 32 27
21 21 21 21 24 26 25 21 20 15 11 14 13 14 17 18 22 25 24 23 22 22 25 28 29 29 30 30 30 31 31 30 33 36 35 32 27 25
26 23 23 24 24 21 20 21 20 15 11 18 17 17 15 13 14 12 15 19 21 21 24 27 27 26 27 31 30 28 27 31 34 34 30 26 27 28
24 23 22 22 19 21 22 23 22 19 11 14 19 21 21 13 15 17 19 20 19 18 20 19 19 17 16 15 16 20 26 31 32 30 27 26 26 25
21 21 19 19 18 19 22 24 24 21 13 13 17 20 20 19 18 20 19 18 18 18 18 17 16 16 16 20 22 23 24 24 23 23 22 24 26 29
18 18 18 18 20 21 22 24 27 25 19 14 15 17 19 21 20 18 16 17 20 20 20 17 16 17 18 20 20 20 19 19 21 23 26 27 28 30
18 20 20 17 17 15 17 22 26 25 23 19 17 16 16 18 19 20 21 21 20 21 21 22 23 23 24 24 24 24 25 25 27 27 28 30 31 32
18 19 19 16 17 19 16 20 24 27 30 26 22 20 19 19 19 19 20 20 22 21 21 22 23 25 26 28 29 30 30 30 30 32 33 33 33 35
19 18 18 18 17 16 19 21 24 25 33 34 30 25 23 21 21 23 22 22 22 23 22 23 25 27 28 26 26 27 29 29 31 31 33 34 35 35
20 19 17 18 18 15 12 19 20 26 26 32 37 33 29 27 25 24 24 23 23 23 24 27 28 28 28 29 30 30 30 31 32 33 34 34 33 34
23 23 21 19 19 16 16 13 20 26 27 27 32 31 34 33 33 31 28 26 26 25 26 28 30 30 30 29 29 30 30 31 32 33 35 37 37 37
Wind_Direction
311 312 312 305 297 291 283 281 276 273 266 259 254 252 252 249 244 244 242 237 243 246 256 236 232 239 241 235 235 243 243 241 242 241 245 246 244 249
311 312 311 305 298 290 286 281 275 268 264 262 257 255 251 248 241 237 233 234 241 241 240 238 236 239 238 234 239 242 239 246 254 258 257 254 254 257
313 311 310 303 297 294 289 279 272 275 271 268 266 257 250 255 252 232 228 230 231 234 232 227 227 233 234 236 235 241 246 248 254 258 258 257 258 261
313 311 309 301 298 286 276 279 278 275 265 262 261 258 254 249 235 233 224 221 224 224 226 222 224 223 227 236 237 244 244 248 254 257 258 261 260 254
313 308 304 299 293 268 273 271 276 265 268 266 263 259 258 259 249 228 228 243 221 226 224 227 228 231 226 233 235 240 238 240 245 252 254 257 260 258
313 307 300 291 274 272 273 271 265 269 269 273 284 280 273 255 242 235 226 229 234 231 222 220 228 223 225 228 234 237 240 240 244 245 251 254 255 253
310 304 293 268 278 268 273 267 268 273 274 283 282 278 262 250 228 233 233 229 228 230 235 227 230 232 237 222 233 240 241 241 240 245 249 252 254 252
308 297 266 256 272 270 268 263 273 271 277 288 283 274 254 239 224 223 220 229 231 222 237 243 233 233 233 222 230 231 234 238 241 243 246 252 251 252
301 276 259 266 269 269 266 273 278 273 290 288 276 268 241 234 216 217 217 220 215 224 226 227 227 234 230 230 235 236 234 240 242 244 245 244 248 252
285 237 269 257 268 268 271 277 273 288 293 280 266 255 232 229 220 214 218 205 219 223 223 229 226 227 229 229 230 230 231 235 238 239 241 248 252 243
249 274 257 269 272 274 274 284 279 300 296 271 250 238 219 218 221 224 225 220 215 227 228 232 226 221 215 221 226 231 237 237 239 242 249 248 233 226
272 263 265 268 268 268 279 285 294 302 294 247 247 217 210 217 210 206 205 208 207 207 207 210 211 214 220 226 233 237 240 246 249 241 234 224 219 209
262 266 269 267 269 274 280 285 295 302 272 209 182 188 197 197 196 199 204 202 198 201 208 210 215 224 230 236 241 242 240 233 228 228 225 218 202 198
256 261 268 264 265 274 275 269 284 288 258 224 203 186 174 179 186 191 194 196 202 213 221 224 229 236 235 230 222 218 218 218 220 221 207 200 198 206
256 266 275 276 273 259 260 260 261 271 254 218 224 210 207 203 201 205 210 212 214 216 222 223 221 222 232 226 215 214 214 209 201 196 197 203 209 213
259 267 272 269 269 258 261 252 241 245 252 226 211 219 208 216 208 202 196 193 189 192 199 191 196 203 204 215 223 228 218 201 203 206 207 214 220 222
261 266 263 256 259 257 252 242 226 226 238 238 234 214 211 203 194 192 192 193 192 193 188 187 184 195 199 203 204 203 207 208 213 220 227 232 235 238
253 256 263 257 254 272 245 230 218 215 222 224 226 224 212 206 205 205 210 209 211 213 216 203 206 210 206 208 210 212 218 224 230 234 237 242 246 249
253 257 261 263 255 253 239 225 219 217 210 221 215 215 215 219 218 218 215 216 216 218 221 223 220 221 221 224 223 226 231 232 235 236 240 244 246 247
255 250 250 255 254 246 241 235 226 220 211 210 212 218 216 215 217 217 219 220 222 224 226 229 227 227 228 230 228 228 232 235 239 242 246 248 250 250
243 246 247 247 252 246 244 237 236 227 223 222 223 222 227 224 225 224 224 226 229 231 233 235 231 232 236 239 237 239 240 240 242 246 249 250 252 252
235 238 244 248 249 242 253 226 229 230 234 230 231 236 234 233 232 228 228 231 233 234 236 239 241 244 242 238 239 242 244 245 247 249 251 252 254 252
245 245 243 244 247 246 241 242 232 238 233 233 222 234 231 232 231 229 232 237 237 238 243 246 245 241 240 241 242 245 246 248 250 251 250 251 251 253
Height
5631 5623 5617 5613 5608 5603 5599 5595 5589 5589 5592 5592 5591 5592 5593 5596 5601 5606 5611 5617 5622 5626 5630 5634 5639 5643 5646 5648 5651 5656 5663 5667 5672 5676 5681 5684 5688 5691
5617 5608 5601 5595 5590 5583 5577 5571 5568 5563 5563 5565 5566 5569 5571 5575 5583 5590 5597 5602 5607 5612 5618 5623 5627 5632 5635 5638 5642 5647 5652 5656 5660 5664 5669 5672 5676 5681
5595 5591 5583 5575 5568 5560 5554 5549 5547 5545 5543 5547 5546 5550 5552 5556 5564 5574 5582 5587 5592 5598 5604 5609 5615 5620 5624 5628 5632 5637 5642 5646 5652 5656 5660 5663 5666 5670
5578 5568 5563 5553 5546 5539 5537 5536 5535 5533 5532 5533 5535 5536 5539 5542 5547 5556 5565 5570 5579 5584 5590 5596 5602 5607 5612 5617 5623 5627 5633 5638 5643 5646 5651 5655 5656 5660
5562 5552 5543 5533 5528 5526 5527 5525 5525 5524 5524 5523 5523 5525 5528 5531 5535 5540 5549 5555 5566 5572 5577 5583 5590 5595 5602 5607 5613 5618 5623 5628 5633 5638 5642 5646 5649 5652
5544 5533 5523 5517 5516 5516 5517 5516 5515 5515 5515 5513 5512 5513 5514 5516 5521 5528 5535 5543 5551 5559 5565 5572 5579 5584 5591 5598 5603 5608 5614 5619 5624 5629 5633 5636 5639 5642
5527 5516 5508 5507 5508 5507 5508 5508 5507 5507 5505 5504 5502 5500 5501 5504 5510 5518 5524 5532 5538 5548 5555 5562 5569 5575 5582 5586 5592 5598 5604 5610 5615 5619 5623 5626 5630 5633
5510 5499 5496 5499 5500 5501 5500 5500 5500 5499 5497 5494 5490 5489 5491 5494 5501 5509 5516 5523 5531 5539 5546 5554 5559 5564 5572 5577 5584 5589 5595 5601 5605 5610 5614 5617 5621 5624
5494 5490 5492 5494 5494 5494 5494 5494 5494 5491 5489 5485 5483 5483 5485 5490 5495 5501 5509 5514 5524 5532 5539 5544 5549 5556 5563 5570 5576 5581 5587 5591 5596 5600 5604 5608 5612 5615
5486 5487 5489 5489 5489 5490 5489 5489 5487 5486 5481 5478 5478 5479 5481 5485 5490 5496 5501 5509 5515 5521 5528 5535 5542 5548 5557 5560 5567 5573 5578 5582 5587 5592 5595 5599 5603 5605
5485 5486 5486 5485 5485 5485 5485 5485 5482 5479 5475 5473 5473 5475 5479 5483 5488 5492 5497 5502 5510 5517 5523 5530 5536 5543 5549 5553 5559 5565 5570 5575 5578 5583 5587 5591 5594 5599
5482 5484 5482 5481 5481 5482 5481 5481 5478 5475 5472 5471 5472 5473 5477 5480 5485 5489 5494 5499 5504 5510 5517 5524 5530 5536 5542 5548 5553 5557 5562 5566 5570 5574 5578 5582 5587 5593
5479 5480 5478 5477 5477 5477 5477 5477 5475 5472 5472 5473 5473 5473 5476 5479 5484 5488 5492 5497 5502 5508 5514 5520 5525 5530 5536 5540 5544 5548 5552 5556 5561 5565 5570 5577 5582 5587
5473 5474 5473 5472 5472 5472 5472 5473 5472 5470 5470 5472 5475 5476 5478 5481 5484 5487 5491 5496 5501 5506 5511 5514 5519 5524 5528 5532 5536 5541 5546 5550 5554 5559 5566 5571 5577 5583
5467 5467 5466 5465 5464 5465 5466 5468 5468 5468 5468 5470 5473 5475 5478 5481 5484 5488 5491 5495 5498 5502 5505 5509 5514 5519 5523 5527 5530 5535 5538 5544 5550 5556 5561 5566 5571 5576
5459 5459 5459 5458 5458 5459 5460 5462 5464 5465 5466 5467 5470 5473 5477 5480 5483 5486 5490 5493 5497 5500 5503 5506 5510 5514 5518 5522 5526 5531 5536 5543 5547 5552 5556 5561 5566 5570
5452 5452 5452 5452 5452 5452 5454 5456 5458 5461 5463 5464 5466 5470 5473 5477 5480 5484 5487 5491 5494 5497 5501 5504 5506 5510 5514 5520 5525 5530 5535 5539 5543 5547 5551 5555 5560 5564
5445 5446 5447 5446 5446 5447 5448 5450 5453 5457 5459 5461 5463 5466 5469 5473 5477 5480 5484 5488 5491 5495 5498 5500 5504 5509 5514 5518 5522 5526 5530 5534 5537 5541 5545 5549 5552 5556
5438 5440 5441 5440 5440 5441 5443 5445 5448 5451 5455 5458 5460 5462 5465 5469 5472 5476 5480 5483 5487 5490 5494 5497 5501 5505 5509 5513 5517 5520 5523 5527 5530 5534 5537 5540 5543 5546
5432 5433 5434 5434 5435 5436 5438 5440 5443 5446 5450 5453 5456 5459 5462 5465 5468 5472 5475 5478 5482 5485 5488 5492 5496 5500 5504 5507 5509 5512 5514 5518 5522 5526 5529 5532 5535 5537
5426 5427 5429 5429 5430 5431 5432 5434 5437 5440 5444 5448 5451 5454 5458 5461 5464 5467 5470 5473 5476 5479 5483 5486 5489 5492 5495 5499 5502 5505 5509 5511 5514 5517 5519 5522 5525 5527
5420 5421 5423 5424 5425 5426 5426 5428 5431 5434 5437 5440 5444 5448 5451 5455 5457 5461 5464 5467 5470 5473 5476 5479 5482 5485 5488 5491 5493 5496 5500 5502 5505 5507 5509 5512 5515 5517
5414 5415 5417 5419 5420 5421 5422 5424 5425 5428 5430 5432 5436 5440 5443 5446 5450 5453 5456 5459 5462 5465 5469 5472 5474 5477 5479 5482 5485 5487 5490 5492 5495 5497 5499 5501 5503 5505